Home > Weather > Fukuoka > Past weeks

Flag for Japan Past Weather in Fukuoka, Japan — Yesterday and Last 2 Weeks

Now
91 °F

Scattered clouds.


Feels Like: 96 °F
Forecast: 82 / 91 °F
Wind: 3 mph from North

Location: Fukuoka Airport

Current Time: Aug 25, 2016 at 12:08:00 PM

Latest Report: Aug 25, 2016 at 11:30 AM


Visibility: N/A

Pressure: 29.68 "Hg

Humidity: 46%

Dew Point: 68 °F

Location of FukuokaLocation

Past Weather in Fukuoka — Graph

°F

Fukuoka Temperature Yesterday

Maximum temperature yesterday: 95 °F (at 2:00 PM)
Minimum temperature yesterday: 75 °F (at 3:30 AM)
Average temperature yesterday: 85 °F

High & Low Weather Summary for the Past Weeks

 TemperatureHumidityPressure
High97 °F (Aug 18, 3:00 PM)89% (Aug 16, 12:30 PM)29.80 "Hg (Aug 16, 12:30 PM)
Low75 °F (Aug 24, 3:30 AM)36% (Aug 10, 3:00 PM)29.50 "Hg (Aug 16, 2:00 PM)
Average86 °F63%29.65 "Hg
* Reported Aug 10 11:00 AM — Aug 25 11:00 AM, Fukuoka, Weather by CustomWeather, © 2016

Note: Actual official high and low records may vary slightly from our data, if they occured in-between our weather recording intervals... More about our weather records

Advertising

Fukuoka Weather History for the Previous 24 Hours

Scroll right to see more
 ConditionsComfort  
Time TempWeatherWind HumidityBarometerVisibility
11:00 AM
Thu, Aug 25
91 °FScattered clouds.5 mph49%29.68 "HgN/A
10:30 AM90 °FScattered clouds.3 mph52%29.68 "HgN/A
10:00 AM90 °FSprinkles. Broken clouds.7 mph49%29.71 "HgN/A
9:30 AM88 °FBroken clouds.3 mph59%29.71 "HgN/A
9:00 AM88 °FSunny.2 mph59%29.68 "Hg10 mi
8:30 AM84 °FPassing clouds.3 mph66%29.68 "HgN/A
8:00 AM84 °FPassing clouds.6 mph66%29.68 "HgN/A
7:30 AM82 °FPassing clouds.5 mph70%29.68 "HgN/A
7:00 AM82 °FSunny.3 mph70%29.68 "Hg10 mi
6:30 AM81 °FSunny.5 mph74%29.68 "Hg10 mi
6:00 AM79 °FPassing clouds.5 mph79%29.68 "HgN/A
5:30 AM81 °FClear.3 mph74%29.65 "Hg10 mi
5:00 AM81 °FClear.5 mph74%29.65 "Hg10 mi
4:30 AM79 °FClear.6 mph79%29.65 "Hg10 mi
4:00 AM79 °FPassing clouds.6 mph79%29.65 "HgN/A
3:30 AM81 °FPassing clouds.5 mph74%29.65 "HgN/A
3:00 AM81 °FPassing clouds.3 mph74%29.65 "HgN/A
2:30 AM81 °FPassing clouds.3 mph74%29.65 "HgN/A
2:00 AM81 °FPassing clouds.3 mph74%29.65 "HgN/A
1:30 AM82 °FPassing clouds.2 mph70%29.65 "HgN/A
1:00 AM84 °FPassing clouds.No wind70%29.65 "HgN/A
12:30 AM82 °FPassing clouds.5 mph74%29.65 "HgN/A
12:00 AM84 °FPassing clouds.2 mph66%29.65 "HgN/A
11:30 PM
Wed, Aug 24
84 °FPassing clouds.3 mph66%29.65 "HgN/A
11:00 PM84 °FPartly cloudy.5 mph62%29.68 "HgN/A
10:30 PM84 °FPassing clouds.3 mph66%29.68 "HgN/A
10:00 PM84 °FPartly cloudy.3 mph70%29.65 "HgN/A
9:30 PM84 °FPartly cloudy.3 mph70%29.65 "HgN/A
9:00 PM86 °FPassing clouds.5 mph66%29.68 "HgN/A
8:30 PM86 °FPartly cloudy.1 mph66%29.65 "HgN/A
8:00 PM86 °FPassing clouds.5 mph66%29.65 "HgN/A
7:30 PM86 °FPartly cloudy.6 mph66%29.65 "HgN/A
7:00 PM88 °FPartly cloudy.3 mph59%29.62 "HgN/A
6:30 PM90 °FScattered showers. Partly sunny.9 mph55%29.62 "HgN/A
6:00 PM90 °FPartly sunny.8 mph52%29.62 "HgN/A
5:30 PM91 °FPartly sunny.9 mph49%29.62 "HgN/A
5:00 PM91 °FPartly sunny.12 mph49%29.62 "HgN/A
4:30 PM93 °FPassing clouds.12 mph47%29.59 "HgN/A
4:00 PM91 °FPartly sunny.10 mph52%29.59 "HgN/A
3:30 PM93 °FPartly sunny.7 mph47%29.59 "HgN/A
3:00 PM93 °FScattered clouds.10 mph47%29.59 "HgN/A
2:30 PM95 °FScattered clouds.13 mph47%29.59 "HgN/A
2:00 PM95 °FScattered clouds.5 mph44%29.59 "HgN/A
1:30 PM91 °FBroken clouds.10 mph49%29.62 "HgN/A
1:00 PM93 °FBroken clouds.9 mph47%29.62 "HgN/A
12:30 PM93 °FBroken clouds.7 mph49%29.62 "HgN/A
12:00 PM91 °FBroken clouds.7 mph52%29.62 "HgN/A
Weather by CustomWeather, © 2016

See weather overviewHow to use our weather pages